ARIANE 44LP DEB, 33542

Orbit data source: Space-Track

ARIANE 44LP DEB, 33542 is space debris in HEO originally from a launch on Sun, 11 Dec 1988 UTC launched from the French Guiana (FRGUI). Debris objects in space refer to the collection of defunct objects orbiting the Earth. Examples of debris include non-operational satellites, rocket bodies, and fragments generated from explosions, collisions, or faulty payload assembly.

Loading next visibility...
Identifier
33542, 1988-109R
Orbit
HEO
Country
Flag of FRFR
Related business
Manufacturer
Unknown
Mission
Spacecraft
Bus & Motor
Unknown
Mass
Unknown
Launch date (UTC)
1988-12-11 (38 years ago)
Launch vehicle
Unknown
Launch site
French Guiana (FRGUI)
Object type
Payload
Rocket body
Debris
Shape & HBR
Unknown shape, 1.1 m
Radar Cross Section
Medium (>0.1 m² and <1 m²)

Expand to show TLE details & history
Last TLE update: 2 days ago

TLE from 2 days ago
0 ARIANE 44LP DEB
1 33542U 88109R   26171.35599700 -.00000010  00000-0  95988-3 0  9992
2 33542   6.6118 204.1948 7116958 118.5669 358.3748  2.24351860171662
Epoch: 2026-06-20T08:32Z
TLE epoch observation values (Epoch: 2026-06-20T08:32:38.140Z)
Latitude
6.37317°
Longitude
-86.28012°
Altitude
801.316 km
Speed
9.739 km/s
True Right ascension
20h 41m 48s
True Declination
6° 20' 08"
Sunlit
Object was in full shadow at epoch
Visualization orbit readout
Latitude
Unknown
Longitude
Unknown
Altitude
Unknown
Speed
Unknown
Apparent Right ascension
Unknown
Apparent Declination
Unknown
Sunlit
N/A
Visualization observer readout
Local Sidereal Time
23:27:23
Azimuth
Unknown
Elevation
Unknown
Doppler factor
Unknown
Orbital elements
Apogee altitude
35,820.452 km
Perigee altitude
729.452 km
Semi-major axis
24,653.089 km
Eccentricity
0.7117
Inclination
6.6118°
RAAN
204.1948°
Arg. of periapsis
118.5669°
True anomaly
346.37221°
Mean anomaly
358.3748°
Eccentric anomaly
354.38507°
Mean motion
0.56071 °/min
Orbital period
642.05 mins
BSTAR
0.00095988
Loading maneuver chart data...
Computing Atmospheric mass density...
Loading historical data...
Loading historical data...
Loading historical data...
Loading historical data...
Loading historical data...
Loading historical data...
Loading historical data...

Documentation

Showing up to 5 results
|